COSMOS 1275 DEB, 42111

Orbit data source: Space-Track

COSMOS 1275 DEB, 42111 is space debris in LEO originally from a launch on Thu, 04 Jun 1981 UTC launched from the Plesetsk Missile And Space Complex (PKMTR). Debris objects in space refer to the collection of defunct objects orbiting the Earth. Examples of debris include non-operational satellites, rocket bodies, and fragments generated from explosions, collisions, or faulty payload assembly.

Loading next visibility...
Identifier
42111, 1981-053PX
Orbit
LEO
Country
Flag of CISCIS
Related business
Manufacturer
Unknown
Mission
Spacecraft
Bus & Motor
Unknown
Mass
Unknown
Launch date (UTC)
1981-06-04 (44 years ago)
Launch vehicle
Unknown
Launch site
Plesetsk Missile And Space Complex (PKMTR)
Object type
Payload
Rocket body
Debris
Shape & HBR
Unknown shape, 0.1 m
Radar Cross Section
Small (<0.1 m²)

Expand to show TLE details & history
Last TLE update: 2 days ago

TLE from 2 days ago
0 COSMOS 1275 DEB
1 42111U 81053PX  25285.78274127  .00004282  00000-0  16096-2 0  9996
2 42111  82.8031 117.4124 0040823  16.5442 343.7066 14.30923442614363
Epoch: 2025-10-12T18:47Z
TLE epoch observation values (Epoch: 2025-10-12T18:47:08.845Z)
Latitude
-0.00002°
Longitude
174.03061°
Altitude
763.542 km
Speed
7.487 km/s
True Right ascension
07h 49m 38s
True Declination
0° 00' 00"
Sunlit
Object was in daylight at epoch
Visualization orbit readout
Latitude
Unknown
Longitude
Unknown
Altitude
Unknown
Speed
Unknown
Apparent Right ascension
Unknown
Apparent Declination
Unknown
Sunlit
N/A
Visualization observer readout
Local Sidereal Time
05:45:08
Azimuth
Unknown
Elevation
Unknown
Doppler factor
Unknown
Orbital elements
Apogee altitude
814.968 km
Perigee altitude
756.478 km
Semi-major axis
7,163.86 km
Eccentricity
0.00408
Inclination
82.8031°
RAAN
117.4124°
Arg. of periapsis
16.5442°
True anomaly
343.57471°
Mean anomaly
343.7066°
Eccentric anomaly
343.64072°
Mean motion
3.5795 °/min
Orbital period
100.57 mins
BSTAR
0.0016096
Loading maneuver chart data...
Computing Atmospheric mass density...

Documentation

Showing up to 5 results
|